Home > Weather > Rasht > Past weeks

Flag for Iran Past Weather in Rasht, Iran — Yesterday and Last 2 Weeks

Now
77 °F

Clear.


Feels Like: 78 °F
Forecast: 70 / 90 °F
Wind: No wind

Location: Rasht Airport

Current Time: Jun 30, 2016 at 7:46:15 AM

Latest Report: Jun 30, 2016 at 7:00 AM


Visibility: 10 mi

Pressure: 29.77 "Hg

Humidity: 94%

Dew Point: 75 °F

Location of RashtLocation

Past Weather in Rasht — Graph

°F

Rasht Temperature Yesterday

Maximum temperature yesterday: 90 °F (at 4:00 PM)
Minimum temperature yesterday: 73 °F (at 1:30 AM)
Average temperature yesterday: 81 °F

High & Low Weather Summary for the Past Weeks

 TemperatureHumidityPressure
High90 °F (Jun 29, 4:00 PM)100% (Jun 16, 2:30 AM)30.07 "Hg (Jun 16, 2:30 AM)
Low64 °F (Jun 15, 6:30 AM)38% (Jun 19, 11:30 AM)29.59 "Hg (Jun 29, 2:30 AM)
Average80 °F71%29.88 "Hg
* Reported Jun 15 6:30 AM — Jun 30 6:30 AM, Rasht, Weather by CustomWeather, © 2016

Note: Actual official high and low records may vary slightly from our data, if they occured in-between our weather recording intervals... More about our weather records

Advertising

Rasht Weather History for the Previous 24 Hours

Scroll right to see more
 ConditionsComfort  
Time TempWeatherWind HumidityBarometerVisibility
6:30 AM
Thu, Jun 30
73 °FClear.No wind100%29.74 "Hg10 mi
6:00 AM73 °FClear.No wind100%29.77 "Hg10 mi
5:30 AM75 °FClear.No wind94%29.74 "Hg10 mi
4:30 AM75 °FClear.No wind94%29.74 "Hg10 mi
3:30 AM75 °FClear.No wind94%29.71 "Hg10 mi
2:30 AM75 °FClear.No wind94%29.71 "Hg10 mi
1:30 AM75 °FClear.No wind94%29.71 "Hg10 mi
12:30 AM75 °FClear.No wind94%29.68 "Hg10 mi
11:30 PM
Wed, Jun 29
77 °FPassing clouds.No wind89%29.68 "HgN/A
10:30 PM77 °FPassing clouds.No wind89%29.65 "HgN/A
10:00 PM77 °FScattered clouds.No wind89%29.65 "HgN/A
9:30 PM79 °FScattered clouds.No wind84%29.62 "HgN/A
9:00 PM79 °FScattered clouds.No wind84%29.62 "HgN/A
8:30 PM81 °FScattered clouds.No wind79%29.62 "HgN/A
8:00 PM82 °FScattered clouds.5 mph74%29.62 "HgN/A
7:30 PM82 °FScattered clouds.5 mph74%29.62 "HgN/A
7:00 PM86 °FScattered clouds.7 mph70%29.62 "HgN/A
6:30 PM86 °FScattered clouds.No wind70%29.62 "HgN/A
6:00 PM86 °FScattered clouds.5 mph70%29.62 "HgN/A
5:30 PM86 °FScattered clouds.No wind70%29.62 "HgN/A
5:00 PM90 °FScattered clouds.5 mph63%29.62 "HgN/A
4:30 PM90 °FScattered clouds.5 mph63%29.62 "HgN/A
4:00 PM90 °FPassing clouds.7 mph59%29.62 "HgN/A
3:30 PM88 °FPassing clouds.7 mph62%29.65 "HgN/A
3:00 PM88 °FPassing clouds.5 mph62%29.65 "HgN/A
2:30 PM88 °FPassing clouds.5 mph62%29.65 "HgN/A
2:00 PM88 °FScattered clouds.5 mph62%29.65 "HgN/A
1:30 PM88 °FScattered clouds.5 mph62%29.65 "HgN/A
1:00 PM86 °FScattered clouds.No wind70%29.68 "HgN/A
12:30 PM82 °FBroken clouds.5 mph79%29.68 "HgN/A
12:00 PM82 °FBroken clouds.No wind79%29.68 "HgN/A
11:30 AM82 °FBroken clouds.No wind79%29.68 "HgN/A
11:00 AM82 °FBroken clouds.No wind79%29.68 "HgN/A
10:30 AM82 °FMore clouds than sun.No wind79%29.68 "HgN/A
10:00 AM81 °FBroken clouds.No wind79%29.68 "HgN/A
9:30 AM79 °FBroken clouds.No wind84%29.68 "HgN/A
9:00 AM79 °FBroken clouds.No wind84%29.68 "HgN/A
8:30 AM79 °FBroken clouds.No wind84%29.68 "HgN/A
8:00 AM77 °FBroken clouds.No wind89%29.68 "Hg5 mi
7:30 AM75 °FBroken clouds.No wind94%29.68 "Hg5 mi
7:00 AM73 °FPartly cloudy.5 mph100%29.68 "Hg5 mi
Weather by CustomWeather, © 2016

See weather overviewHow to use our weather pages